Weather in Chika

Russia / Komi Republic     65°29′07″N   54°19′41″E
temp.,
°C
wind,
m/s
gust,
m/s
humid.,
%
clouds,
%
prec.,
mm/h
press.,
hPa
HPBL,
m
29 may, sun
sun2900:00+12ene269380 3.1 1005177
03:00+11ne258752 3.2 1004108
06:00+13ne277528 0.0 1003278
09:00+19ene584450 0.1 10021556
12:00+14sse3673100 0.4 1003440
15:00+14ese2772100 0.4 1005632
18:00+17ese376128 0.0 10061298
21:00+13ne227962 0.1 100720
30 may, mon
mon3000:00+12ne397259 0.0 1009295
03:00+10ne387271 0.0 1010257
06:00+11ne3763100 0.0 1012284
09:00+12ene255695 0.0 1013321
12:00+19e13395 0.0 10141268
15:00+21ene243364 0.0 10142347
18:00+19ne353015 0.0 10151093
21:00+13ne2242100 0.0 101740
31 may, tue
tue3100:00+10nne225238 0.0 101823
03:00+9nne245843 0.0 102087
06:00+13nne35407 0.0 1021487
09:00+17nne35255 0.0 10221260
12:00+19nne342029 0.0 10221703
15:00+20n342466 0.0 10221823
18:00+19n3431100 0.0 10221631
21:00+13nnw22505 0.0 102327
1 june, wed
wed100:00+10nnw23575 0.0 102361
03:00+9nnw276449 0.0 1024226
06:00+12n35415 0.0 1024584
09:00+16nne34325 0.0 10231092
12:00+19ne34275 0.0 10231602
15:00+20ne442035 0.0 10231773
18:00+18ene342361 0.0 10231454
21:00+12ene373972 0.0 1024192
2 june, thu
thu200:00+9ene285294 0.0 1024179
03:00+8ene275676 0.0 1025243
06:00+11ene344154 0.0 1025537
09:00+16ene332522 0.0 10241063
12:00+19e33165 0.0 10241483
15:00+20e33145 0.0 10231696
18:00+19e33185 0.0 10221513
21:00+12e273623 0.0 1023141